Orbital Elements at Epoch 2457204.5 (2015-Jul-01.0) TDB
Reference: JPL K183/5 (heliocentric ecliptic J2000)
Element | Value | Uncertainty (1-sigma) | Units |
e | .5385486170391682 | 9.9521e-08 | |
a | 3.509603648442876 | 5.2808e-08 | au |
q | 1.619511457218346 | 3.4184e-07 | au |
i | 3.609030486894438 | 5.6413e-06 | deg |
node | 267.6621316408426 | 0.0001531 | deg |
peri | 216.4921496275937 | 0.00017075 | deg |
M | 171.3579078061031 | 1.0397e-05 | deg |
tp | 2456061.392204624895 (2012-May-13.89220463) | 8.5764e-05 | TDB |
period | 2401.516286022145 6.57 | 5.4203e-05 1.484e-07 | d yr |
n | .1499052919588155 | 3.3834e-09 | deg/d |
Q | 5.399695839667406 | 8.1248e-08 | au |
|
| | Orbit Determination Parameters
Additional Information
|